User: anonymous   Login
Location: Borgo
(42.3939°N, 9.2791°E)
Time: 07:09:15
(UTC+00:00)
Language:

CSL-04 Rocket - Orbit

View from above orbital plane
View from above orbital plane
View from above satellite
View from above satellite

Ground track
Ground track

The orbit data is extracted from the following two-line orbital elements,

1 25732U 99025C   20156.70770356 -.00000005  00000-0  19650-4 0  9994
2 25732  98.9448 185.3549 0036358 246.2293 222.6205 14.17677069 90153
Epoch (UTC): 04 June 2020 16:59:05
Eccentricity: 0.0036358
inclination: 98.9448°
perigee height: 807 km
apogee height: 859 km
right ascension of ascending node: 185.3549°
argument of perigee: 246.2293°
revolutions per day: 14.17677069
mean anomaly at epoch: 222.6205°
orbit number at epoch: 9015

The dashed part of the orbit path shows where the satellite is in the earth's shadow,  

DLR